Location: Unspecified
(42.2730°N, 83.7130°W)
Time: 14:33:28
(UTC+00:00)

NOSS 3-2 (C) - Pass Details

Date: 14 December 2025
Orbit: 672 x 1536 km, 63.4° (Epoch: 2 January)

Event Time Altitude Azimuth Distance (km) Brightness Sun altitude
Rises 22:26:50 0° 235° (SW) 3,073 8.7 -4.7°
Reaches altitude 10° 22:29:08 10° 242° (WSW) 2,213 7.4 -5.0°
Maximum altitude 22:33:54 44° 315° (NW) 1,102 4.0 -5.8°
Drops below altitude 10° 22:39:35 10° 27° (NNE) 2,628 5.3 -6.8°
Enters shadow 22:41:42 - 32° (NNE) 3,408 5.8 -7.1°
